Previsão horária em Juripiranga

Hoje, 24 Junho, Quinta-feira

Tempo Temperatura Precipitação Vento Pressão Humidade
00:00 +23°C° 0 mm 1 m/s 752 mmHg 89%
01:00 +23°C° 0 mm 1 m/s 752 mmHg 90%
02:00 +22°C° 0 mm 1 m/s 752 mmHg 90%
03:00 +22°C° 0 mm 1 m/s 751 mmHg 91%
04:00 +22°C° 0 mm 1 m/s 751 mmHg 92%
05:00 +21°C° 0 mm 2 m/s 751 mmHg 91%
06:00 +21°C° 0 mm 2 m/s 752 mmHg 91%
07:00 +21°C° 0 mm 2 m/s 752 mmHg 91%
08:00 +25°C° 0 mm 3 m/s 752 mmHg 79%
09:00 +27°C° 0 mm 3 m/s 753 mmHg 68%
10:00 +30°C° 0 mm 4 m/s 753 mmHg 56%
11:00 +30°C° 0.1 mm 4 m/s 752 mmHg 55%
12:00 +32°C° 0.1 mm 5 m/s 752 mmHg 53%
13:00 +33°C° 0.1 mm 5 m/s 751 mmHg 52%
14:00 +30°C° 0.4 mm 5 m/s 751 mmHg 58%
15:00 +29°C° 0.4 mm 6 m/s 751 mmHg 64%
16:00 +28°C° 0.4 mm 6 m/s 750 mmHg 70%
17:00 +27°C° 0.2 mm 5 m/s 750 mmHg 76%
18:00 +26°C° 0.2 mm 4 m/s 751 mmHg 82%
19:00 +24°C° 0.2 mm 3 m/s 751 mmHg 89%
20:00 +24°C° 0 mm 3 m/s 751 mmHg 89%
21:00 +23°C° 0 mm 2 m/s 752 mmHg 90%
22:00 +23°C° 0 mm 2 m/s 752 mmHg 91%
23:00 +23°C° 0 mm 2 m/s 752 mmHg 92%

Amanhã, 25 Junho, Sexta-feira

Tempo Temperatura Precipitação Vento Pressão Humidade
00:00 +21°C° 0 mm 2 m/s 752 mmHg 93%
01:00 +21°C° 0 mm 2 m/s 752 mmHg 94%
02:00 +21°C° 0 mm 2 m/s 752 mmHg 94%
03:00 +21°C° 0 mm 3 m/s 751 mmHg 94%
04:00 +21°C° 0 mm 3 m/s 751 mmHg 95%
05:00 +21°C° 0 mm 3 m/s 751 mmHg 94%
06:00 +21°C° 0 mm 3 m/s 752 mmHg 93%
07:00 +21°C° 0 mm 3 m/s 752 mmHg 92%
08:00 +25°C° 0 mm 4 m/s 752 mmHg 81%
09:00 +27°C° 0 mm 5 m/s 753 mmHg 69%
10:00 +30°C° 0 mm 7 m/s 753 mmHg 57%
11:00 +32°C° 0 mm 7 m/s 753 mmHg 52%
12:00 +33°C° 0 mm 7 m/s 752 mmHg 46%
13:00 +34°C° 0 mm 7 m/s 751 mmHg 41%
14:00 +34°C° 0 mm 7 m/s 751 mmHg 42%
15:00 +34°C° 0 mm 7 m/s 750 mmHg 43%
16:00 +33°C° 0 mm 7 m/s 750 mmHg 44%
17:00 +30°C° 0 mm 6 m/s 750 mmHg 54%
18:00 +28°C° 0 mm 6 m/s 751 mmHg 65%
19:00 +26°C° 0 mm 5 m/s 751 mmHg 75%
20:00 +25°C° 0 mm 4 m/s 751 mmHg 80%
21:00 +23°C° 0 mm 4 m/s 752 mmHg 85%
22:00 +22°C° 0 mm 3 m/s 752 mmHg 90%
23:00 +22°C° 0 mm 3 m/s 752 mmHg 90%

Depois de amanhã, 26 Junho, Sábado

Tempo Temperatura Precipitação Vento Pressão Humidade
00:00 +22°C° 0 mm 3 m/s 752 mmHg 91%
01:00 +22°C° 0 mm 4 m/s 751 mmHg 92%
02:00 +22°C° 0 mm 4 m/s 751 mmHg 91%
03:00 +22°C° 0 mm 4 m/s 751 mmHg 91%
04:00 +22°C° 0 mm 4 m/s 751 mmHg 90%
05:00 +22°C° 0 mm 4 m/s 751 mmHg 89%
06:00 +22°C° 0 mm 4 m/s 751 mmHg 87%
07:00 +22°C° 0 mm 4 m/s 751 mmHg 86%
08:00 +25°C° 0 mm 5 m/s 752 mmHg 75%
09:00 +27°C° 0 mm 6 m/s 752 mmHg 64%
10:00 +30°C° 0 mm 7 m/s 752 mmHg 54%
11:00 +30°C° 0 mm 7 m/s 752 mmHg 50%
12:00 +32°C° 0 mm 7 m/s 751 mmHg 47%
13:00 +33°C° 0 mm 7 m/s 751 mmHg 44%
14:00 +33°C° 0 mm 7 m/s 750 mmHg 44%
15:00 +33°C° 0 mm 7 m/s 750 mmHg 44%
16:00 +33°C° 0 mm 7 m/s 749 mmHg 44%
17:00 +30°C° 0 mm 7 m/s 750 mmHg 51%
18:00 +28°C° 0 mm 6 m/s 750 mmHg 58%
19:00 +26°C° 0 mm 6 m/s 751 mmHg 65%
20:00 +25°C° 0 mm 5 m/s 751 mmHg 70%
21:00 +23°C° 0 mm 5 m/s 751 mmHg 76%
22:00 +22°C° 0 mm 4 m/s 752 mmHg 81%
23:00 +22°C° 0 mm 4 m/s 752 mmHg 83%

27 Junho, Domingo

Tempo Temperatura Precipitação Vento Pressão Humidade
00:00 +21°C° 0 mm 4 m/s 752 mmHg 84%
01:00 +21°C° 0 mm 3 m/s 751 mmHg 86%
02:00 +21°C° 0 mm 3 m/s 751 mmHg 86%
03:00 +21°C° 0 mm 3 m/s 751 mmHg 87%
04:00 +21°C° 0 mm 3 m/s 751 mmHg 88%
05:00 +21°C° 0 mm 3 m/s 751 mmHg 88%
06:00 +21°C° 0 mm 3 m/s 751 mmHg 88%
07:00 +21°C° 0 mm 3 m/s 752 mmHg 88%
08:00 +23°C° 0 mm 5 m/s 752 mmHg 76%
09:00 +27°C° 0 mm 6 m/s 752 mmHg 65%
10:00 +31°C° 0 mm 8 m/s 752 mmHg 53%
11:00 +31°C° 0 mm 8 m/s 752 mmHg 51%
12:00 +32°C° 0 mm 8 m/s 751 mmHg 49%
13:00 +32°C° 0 mm 8 m/s 751 mmHg 46%
14:00 +32°C° 0 mm 8 m/s 751 mmHg 43%
15:00 +33°C° 0 mm 8 m/s 750 mmHg 41%
16:00 +33°C° 0 mm 8 m/s 750 mmHg 38%
17:00 +30°C° 0 mm 7 m/s 750 mmHg 46%
18:00 +27°C° 0 mm 6 m/s 751 mmHg 55%
19:00 +25°C° 0 mm 5 m/s 751 mmHg 63%
20:00 +23°C° 0 mm 5 m/s 752 mmHg 70%
21:00 +22°C° 0 mm 4 m/s 752 mmHg 76%
22:00 +21°C° 0 mm 4 m/s 753 mmHg 83%
23:00 +21°C° 0 mm 3 m/s 752 mmHg 86%

28 Junho, Segunda-feira

Tempo Temperatura Precipitação Vento Pressão Humidade
00:00 +21°C° 0 mm 3 m/s 752 mmHg 89%
01:00 +21°C° 0 mm 3 m/s 752 mmHg 93%
02:00 +21°C° 0 mm 3 m/s 752 mmHg 93%
03:00 +20°C° 0 mm 3 m/s 752 mmHg 94%
04:00 +20°C° 0 mm 3 m/s 752 mmHg 94%
05:00 +20°C° 0 mm 3 m/s 752 mmHg 93%
06:00 +20°C° 0 mm 2 m/s 752 mmHg 92%
07:00 +20°C° 0 mm 2 m/s 752 mmHg 92%
08:00 +23°C° 0 mm 4 m/s 753 mmHg 80%
09:00 +27°C° 0 mm 5 m/s 753 mmHg 69%
10:00 +29°C° 0 mm 6 m/s 753 mmHg 57%
11:00 +29°C° 0.1 mm 7 m/s 753 mmHg 58%
12:00 +30°C° 0.1 mm 7 m/s 752 mmHg 59%
13:00 +30°C° 0.1 mm 7 m/s 752 mmHg 60%
14:00 +29°C° 0.2 mm 7 m/s 752 mmHg 61%
15:00 +29°C° 0.2 mm 6 m/s 752 mmHg 63%
16:00 +28°C° 0.2 mm 6 m/s 751 mmHg 64%
17:00 +27°C° 0.1 mm 6 m/s 752 mmHg 67%
18:00 +26°C° 0.1 mm 5 m/s 752 mmHg 70%
19:00 +25°C° 0.1 mm 4 m/s 753 mmHg 73%
20:00 +23°C° 0 mm 4 m/s 753 mmHg 77%
21:00 +24°C° 0 mm 3 m/s 753 mmHg 81%
22:00 +22°C° 0 mm 3 m/s 754 mmHg 85%
23:00 +21°C° 0 mm 3 m/s 753 mmHg 88%

29 Junho, Terça-feira

Tempo Temperatura Precipitação Vento Pressão Humidade
00:00 +21°C° 0 mm 3 m/s 753 mmHg 90%
01:00 +21°C° 0 mm 3 m/s 753 mmHg 93%
02:00 +20°C° 0 mm 3 m/s 753 mmHg 93%
03:00 +20°C° 0 mm 3 m/s 752 mmHg 93%
04:00 +20°C° 0 mm 3 m/s 752 mmHg 93%
05:00 +20°C° 0 mm 2 m/s 752 mmHg 93%
06:00 +20°C° 0 mm 2 m/s 753 mmHg 92%
07:00 +20°C° 0 mm 2 m/s 753 mmHg 91%
08:00 +24°C° 0 mm 3 m/s 753 mmHg 80%
09:00 +27°C° 0 mm 5 m/s 754 mmHg 69%
10:00 +29°C° 0 mm 6 m/s 754 mmHg 57%
11:00 +30°C° 0 mm 6 m/s 753 mmHg 54%
12:00 +32°C° 0 mm 6 m/s 753 mmHg 51%
13:00 +33°C° 0 mm 6 m/s 753 mmHg 47%
14:00 +33°C° 0 mm 6 m/s 752 mmHg 49%
15:00 +32°C° 0 mm 6 m/s 752 mmHg 50%
16:00 +32°C° 0 mm 6 m/s 752 mmHg 51%
17:00 +29°C° 0 mm 5 m/s 752 mmHg 60%
18:00 +27°C° 0 mm 5 m/s 752 mmHg 69%
19:00 +25°C° 0 mm 4 m/s 753 mmHg 78%
20:00 +25°C° 0 mm 3 m/s 753 mmHg 83%
21:00 +24°C° 0 mm 3 m/s 753 mmHg 88%
22:00 +22°C° 0 mm 3 m/s 754 mmHg 93%
23:00 +23°C° 0 mm 2 m/s 753 mmHg 94%
Mostrar mais

Necessitamos do seu Consentimento

A Meteoprog e os seus Fornecedores de Serviços podem armazenar e aceder a dados pessoais como cookies, identificadores do dispositivo ou outras tecnologias semelhantes existentes no seu dispositivo e processar estes dados para personalizar conteúdos e anúncios, assim como funcionalidades nas redes sociais e análise de tráfego.

  • Armazenar e/ou aceder a informações no seu dispositivo

    Os cookies, identificadores do dispositivo ou outras informações podem ser armazenados ou acedidos no seu dispositivo, para os fins acima indicados.

  • Anúncios e conteúdos personalizados, medição de anúncios e conteúdos, dados sobre o público-alvo e desenvolvimento de produtos

    Os anúncios e os conteúdos podem ser personalizados com base num perfil. Podem ser adicionados dados adicionais para uma maior personalização dos anúncios e dos conteúdos. A eficácia dos anúncios e dos conteúdos pode ser medida. Podem ser obtidas informações sobre o público que visualizou os anúncios e os conteúdos. Estes dados podem ser usados para desenvolver ou melhorar sistemas, softwares ou a experiência do utilizador.

Ao clicar em "Eu concordo”, permitirá o uso de cookies, identificadores do dispositivo e web beacons mencionados ou outras tecnologias semelhantes. As configurações do navegador do seu dispositivo podem ser alteradas.

Para certos fins, podem ser invocados interesses legítimos ao invés de consentimento. Pode ler mais informação sobre este assunto na nossa Política de Privacidade e Cookies.